Wetbulb
17.84 19.34 20.15 19.13 18.07 11.93 8.66 11.17 7.40 6.13 11.17 16.50 17.95 15.34 19.37 21.69 22.83 24.60 24.70 25.96 24.46 20.61 17.65 14.26 13.22 11.22 12.77 10.97 10.77 7.70 7.87 5.60 9.51 11.04 14.76 17.61 19.04 22.24 24.19 26.46 27.13 29.03 29.87 30.58
12.79 18.85 18.48 16.13 18.78 18.90 15.55 11.28 10.05 11.70 12.03 20.89 20.97 16.74 17.59 21.75 24.06 24.25 25.39 26.55 26.70 25.59 24.18 21.07 16.82 16.58 15.87 11.45 8.71 8.31 4.68 9.07 11.31 12.49 14.58 16.27 18.42 22.12 23.51 25.32 26.70 27.80 28.50 29.21
7.71 17.24 16.27 9.59 15.63 17.93 17.93 14.87 11.40 6.96 14.06 16.56 17.74 20.41 20.32 20.17 22.19 23.88 25.35 26.12 26.34 24.53 23.89 23.17 20.25 20.41 13.75 10.77 7.57 7.87 6.51 7.72 12.57 12.70 15.13 15.93 18.13 21.67 23.30 24.99 26.58 26.65 27.61 28.82
8.76 10.62 -1.11 15.30 21.23 21.86 19.22 21.24 21.27 18.47 16.14 16.79 17.61 19.58 23.77 26.78 24.73 22.96 24.18 25.76 25.47 24.73 23.78 22.70 21.32 19.64 15.47 13.28 11.44 10.61 8.72 7.89 9.67 11.21 13.15 15.94 17.48 20.65 23.40 25.28 26.10 26.27 27.04 28.17
7.77 6.10 12.49 15.61 17.70 15.94 14.28 15.80 20.59 20.96 21.40 22.42 24.27 20.90 22.48 24.37 22.60 21.74 21.06 21.90 23.59 23.75 24.06 22.95 21.33 20.31 18.24 16.51 14.18 13.13 11.07 7.56 10.29 8.90 10.88 13.48 16.27 18.72 22.42 25.37 26.14 26.14 27.30 27.30
9.24 6.17 2.62 13.90 18.81 22.47 19.67 11.32 22.32 23.05 23.40 22.82 23.70 18.43 22.39 24.77 25.62 24.66 25.50 24.58 23.40 23.39 23.96 22.69 21.43 20.58 18.73 17.54 17.08 15.40 14.59 14.41 11.45 10.11 8.14 11.46 15.44 18.51 21.68 25.34 25.49 25.95 26.06 27.05
8.73 8.21 12.00 17.83 18.92 21.65 8.63 12.12 20.03 22.49 23.96 24.47 19.62 21.00 23.13 24.18 23.62 25.39 24.74 25.99 26.22 23.47 22.50 22.14 21.95 20.60 17.96 17.80 16.46 17.48 18.30 18.20 17.13 15.67 11.64 11.86 14.85 18.04 21.05 23.44 24.45 24.11 24.35 25.49
9.81 5.67 2.05 21.06 16.40 12.00 16.51 20.53 21.04 22.11 22.18 20.72 22.29 24.48 24.18 24.50 24.82 25.56 24.30 25.75 24.88 22.17 22.07 22.20 21.92 20.25 18.71 17.33 17.82 18.16 18.09 18.22 17.51 16.35 17.75 18.67 14.28 17.32 20.72 21.27 21.94 21.72 22.09 22.49
7.42 10.10 19.07 20.66 19.28 18.26 22.03 20.36 21.70 22.11 21.11 22.42 20.99 23.37 26.11 24.07 23.49 23.81 24.96 25.44 24.77 21.82 21.80 21.98 21.55 20.34 18.75 18.23 18.02 17.43 16.77 16.02 16.46 17.04 18.80 18.18 15.98 15.99 19.32 20.42 20.02 19.57 19.96 20.20
7.86 11.48 14.82 17.78 18.36 21.98 22.81 22.08 22.50 23.19 22.20 20.53 20.29 23.23 23.08 23.41 23.88 23.92 24.39 23.90 23.94 21.19 20.28 20.61 21.19 22.07 20.33 19.46 18.09 16.79 15.30 15.13 15.88 15.58 16.11 14.80 19.88 19.25 18.00 19.93 19.54 19.34 17.96 18.66
7.47 10.27 17.19 16.32 19.95 21.38 22.11 24.21 23.13 20.69 19.61 20.05 19.09 20.85 21.12 23.44 22.18 22.80 22.64 23.74 23.07 21.05 19.80 19.89 21.12 20.33 20.81 20.10 18.66 18.11 16.96 16.91 15.79 16.91 14.52 14.93 17.70 15.76 16.76 20.65 22.96 20.38 19.35 18.71
12.57 18.71 18.52 18.28 21.51 24.40 22.59 22.91 24.51 24.30 19.00 19.39 21.60 22.96 25.30 23.54 24.82 22.41 22.06 22.15 21.22 19.95 19.16 19.22 18.29 18.95 19.64 19.61 18.84 17.58 17.39 17.78 16.18 14.98 13.48 16.64 15.81 15.91 23.54 24.65 25.83 25.94 26.27 24.39
20.09 22.39 22.07 22.07 23.79 24.50 23.01 23.45 24.49 24.10 24.75 24.53 25.82 25.76 23.84 20.43 20.77 24.57 23.06 21.12 19.33 18.00 18.90 18.48 17.79 17.77 18.32 18.52 18.38 18.31 15.92 16.85 15.13 15.65 13.13 12.33 13.64 14.80 13.96 18.37 23.78 24.96 25.18 25.46
20.43 21.21 19.36 16.53 19.98 23.78 24.09 24.30 25.29 23.65 21.99 21.72 21.61 20.32 19.19 21.55 22.38 20.69 18.97 19.49 18.75 16.52 15.54 16.00 16.97 17.40 17.99 17.43 17.39 15.24 14.55 19.00 15.75 13.12 14.03 13.19 14.14 15.00 15.09 14.51 14.21 15.60 21.54 22.49
15.28 18.54 21.51 22.10 21.05 21.72 23.00 22.05 20.92 21.33 22.12 21.85 23.88 24.25 24.28 21.56 21.04 19.17 17.11 16.79 17.21 15.18 14.86 14.51 15.29 15.16 16.14 16.23 15.64 12.64 14.21 13.18 11.81 11.45 13.61 16.18 15.67 15.59 15.24 15.07 14.00 14.02 16.15 18.85
21.18 21.59 21.67 14.73 15.66 17.82 18.78 18.70 18.46 19.22 20.40 20.85 21.75 22.57 22.87 19.86 17.25 14.86 13.68 13.29 13.40 13.88 13.72 13.99 14.92 13.63 13.89 15.16 13.53 12.19 12.74 17.29 16.27 12.21 13.27 13.18 13.34 14.09 13.64 13.00 11.60 13.10 13.63 15.83
16.97 15.74 17.97 17.28 18.28 18.40 16.71 18.59 18.38 18.76 19.62 19.67 20.18 22.22 22.74 18.09 15.68 13.68 12.31 12.85 12.58 12.27 13.08 14.33 12.08 12.97 13.01 13.92 13.60 14.39 13.66 13.06 18.85 13.58 12.07 12.45 11.61 11.49 12.60 12.80 12.12 12.18 12.37 18.30
17.53 17.80 17.67 17.42 16.30 16.01 15.96 17.57 18.45 18.98 17.74 18.83 20.36 20.51 19.65 16.00 14.43 12.83 11.15 11.02 10.76 11.21 11.65 11.86 11.67 12.34 12.83 12.89 13.65 12.72 12.51 12.12 13.68 12.06 12.25 11.45 9.73 9.58 8.80 9.92 9.16 8.99 10.04 15.61
16.65 15.98 16.02 16.59 16.51 16.06 16.45 16.26 17.36 17.77 17.50 19.05 18.46 18.04 17.22 15.01 13.36 11.63 10.85 10.40 9.71 8.60 9.33 11.27 17.05 13.42 12.17 14.28 13.46 11.24 12.48 11.81 11.39 11.17 12.44 15.39 12.45 10.15 9.42 8.56 8.40 9.66 9.62 13.30
14.62 15.44 15.95 16.11 16.98 15.71 14.88 15.92 15.71 15.06 15.97 17.25 17.68 17.81 14.46 13.23 12.41 11.24 11.81 10.45 11.01 10.55 12.32 15.44 13.61 13.00 13.07 15.95 16.59 10.95 10.14 9.80 9.33 9.10 10.01 10.59 10.86 9.59 8.84 13.60 11.58 10.14 9.67 12.16
12.88 13.74 13.94 14.77 14.44 14.56 15.58 15.49 13.79 13.08 14.78 16.88 15.75 14.40 13.00 12.75 12.39 12.41 11.51 11.16 13.22 16.57 16.55 17.18 13.92 13.16 14.78 16.86 14.08 10.60 9.37 9.30 8.69 8.38 12.67 10.01 12.56 10.34 9.69 9.13 10.68 11.27 11.05 10.53
11.75 11.64 11.97 13.20 12.50 12.60 14.41 14.41 13.35 13.36 14.08 14.82 15.33 14.29 12.87 12.23 12.63 13.38 14.01 12.91 16.63 18.94 15.58 14.87 15.14 17.28 17.47 17.61 12.81 11.72 10.15 10.53 9.36 9.51 8.75 9.65 10.48 10.31 8.50 7.41 7.08 9.59 8.63 6.49
9.95 10.03 11.44 10.77 10.71 11.95 12.04 12.53 12.19 12.40 12.29 12.77 13.25 13.52 13.24 13.75 14.66 13.05 12.01 16.93 15.91 16.98 13.31 13.76 18.12 21.30 20.00 12.50 11.87 11.08 10.64 9.54 8.27 7.70 7.08 7.22 7.66 6.38 5.38 5.07 5.50 6.07 4.44 5.33
9.05 9.29 11.35 9.76 7.96 9.96 9.83 11.64 12.53 12.61 11.93 12.32 12.65 13.12 13.36 13.32 14.63 16.79 17.46 18.94 19.28 18.05 16.59 17.83 20.31 19.75 16.15 9.39 9.08 8.25 7.95 7.24 6.44 4.25 4.00 10.53 2.79 2.92 2.70 3.42 3.56 4.88 4.44 6.49
6.87 6.04 9.61 7.88 7.84 8.99 9.80 12.17 11.54 11.09 11.14 10.37 10.89 12.39 13.51 14.81 14.02 13.50 14.07 16.46 20.02 15.14 13.76 18.22 17.15 14.75 6.24 7.69 7.35 6.52 6.43 5.67 4.17 3.64 3.58 3.57 2.65 1.22 1.84 2.27 1.35 2.80 3.37 3.97
4.77 8.33 10.39 8.77 9.69 9.72 9.56 11.76 9.60 10.42 10.24 9.06 9.05 10.33 10.51 11.47 12.07 10.86 11.49 13.13 11.99 12.60 8.36 7.91 7.28 7.07 5.93 4.82 4.17 4.09 4.03 4.24 4.53 4.10 5.43 2.94 1.09 -0.46 -0.61 -0.45 -0.44 1.37 3.18 3.43
5.36 11.02 8.87 7.15 8.41 10.51 9.92 11.08 8.95 8.73 10.26 9.32 8.67 9.52 9.56 9.51 10.59 9.15 9.31 6.18 6.87 7.59 6.94 6.63 6.02 6.67 5.21 5.20 4.31 3.49 2.84 2.20 6.19 2.03 -1.15 -2.26 -2.79 -3.12 -1.39 0.33 1.27 2.59 3.92 4.35
MSLP
1019.19 1019.20 1019.31 1019.29 1019.60 1020.51 1021.05 1020.38 1019.94 1018.29 1017.68 1017.11 1016.76 1016.84 1016.76 1016.50 1016.33 1016.32 1016.40 1016.62 1016.93 1017.54 1018.37 1018.78 1019.59 1020.20 1020.46 1020.82 1021.14 1020.81 1021.07 1020.94 1020.46 1019.41 1018.37 1017.44 1016.44 1015.51 1014.24 1012.70 1011.44 1010.01 1008.68 1007.27
1019.02 1018.87 1018.45 1017.91 1018.17 1017.69 1018.27 1019.02 1018.66 1018.65 1017.48 1016.81 1016.43 1016.42 1016.50 1016.37 1016.23 1016.18 1016.03 1016.01 1016.13 1016.54 1017.13 1018.02 1018.75 1019.45 1019.87 1020.28 1020.67 1020.53 1020.55 1020.30 1019.71 1018.97 1018.06 1017.25 1016.11 1014.88 1013.43 1012.04 1010.63 1009.33 1007.96 1006.52
1019.08 1018.44 1018.01 1017.46 1016.40 1016.38 1016.35 1016.51 1016.88 1017.62 1016.48 1016.68 1016.56 1016.58 1016.24 1016.26 1016.20 1016.01 1015.69 1015.60 1015.62 1015.83 1016.27 1016.89 1017.72 1018.40 1019.26 1019.57 1020.19 1020.18 1019.86 1019.64 1019.30 1018.69 1017.96 1016.95 1015.86 1014.44 1013.02 1011.68 1010.28 1008.95 1007.54 1006.14
1019.90 1019.51 1018.47 1017.83 1017.05 1016.63 1016.47 1016.20 1016.15 1015.93 1015.95 1016.54 1016.60 1016.45 1016.05 1015.86 1015.89 1015.73 1015.60 1015.31 1015.28 1015.25 1015.59 1016.12 1016.80 1017.65 1018.39 1018.97 1019.45 1019.40 1019.09 1019.01 1018.88 1018.55 1017.64 1016.65 1015.54 1014.36 1013.04 1011.63 1010.39 1009.00 1007.50 1005.94
1020.89 1020.15 1018.64 1017.76 1018.47 1018.46 1018.03 1017.44 1017.40 1015.79 1016.05 1016.68 1016.83 1016.26 1015.96 1015.60 1015.78 1015.63 1015.40 1015.38 1015.11 1015.09 1015.24 1015.51 1016.12 1016.80 1017.64 1018.23 1018.58 1018.68 1018.44 1018.50 1018.61 1018.35 1017.34 1016.37 1015.34 1014.11 1012.79 1011.43 1010.20 1008.94 1007.50 1005.84
1021.34 1020.63 1019.76 1020.02 1019.64 1018.48 1017.92 1017.88 1017.91 1017.78 1017.65 1017.40 1017.16 1016.76 1016.05 1015.61 1015.53 1015.21 1015.06 1015.04 1014.88 1014.96 1015.08 1015.31 1015.72 1016.23 1017.01 1017.58 1017.83 1018.14 1017.97 1017.81 1017.89 1017.43 1017.20 1016.19 1015.19 1014.02 1012.62 1011.32 1010.39 1009.00 1007.62 1006.23
1022.06 1021.28 1020.33 1020.37 1019.49 1018.36 1018.77 1019.02 1018.16 1018.07 1017.63 1017.34 1017.23 1016.85 1015.89 1015.62 1015.36 1015.04 1014.96 1014.97 1014.95 1014.70 1014.85 1015.09 1015.44 1015.87 1016.62 1017.02 1017.36 1017.59 1017.55 1017.18 1017.17 1016.95 1016.66 1015.83 1014.98 1013.98 1012.84 1011.58 1010.63 1009.35 1008.06 1006.89
1022.53 1021.67 1020.90 1020.54 1020.30 1021.17 1020.91 1019.27 1018.97 1017.64 1017.15 1016.91 1016.61 1016.04 1015.68 1015.50 1015.25 1015.03 1014.93 1014.97 1015.00 1014.70 1014.63 1014.78 1015.08 1015.60 1016.26 1016.59 1016.91 1017.14 1017.34 1017.14 1016.77 1016.68 1016.23 1015.49 1014.99 1014.04 1013.06 1011.83 1010.88 1010.21 1008.83 1007.30
1024.32 1023.07 1021.59 1021.20 1021.16 1020.80 1020.60 1019.55 1018.28 1017.33 1016.88 1016.84 1016.51 1015.84 1015.48 1015.24 1015.07 1014.85 1014.82 1014.84 1014.81 1014.51 1014.35 1014.46 1014.76 1015.24 1015.87 1016.12 1016.47 1016.91 1017.14 1017.11 1016.87 1016.42 1016.11 1015.66 1015.12 1014.29 1013.44 1012.29 1011.25 1010.86 1009.66 1007.66
1024.24 1022.56 1022.02 1021.49 1020.96 1020.56 1020.06 1019.17 1018.14 1017.34 1016.80 1016.45 1016.10 1015.48 1015.10 1014.94 1014.78 1014.73 1014.60 1014.64 1014.63 1014.55 1014.37 1014.38 1014.46 1014.88 1015.40 1015.85 1016.17 1016.71 1016.92 1017.00 1016.97 1016.73 1016.14 1015.91 1015.39 1014.72 1014.02 1013.01 1011.89 1011.24 1010.56 1009.96
1023.60 1022.63 1021.72 1020.83 1020.70 1020.10 1019.32 1018.49 1017.66 1016.85 1016.47 1016.11 1015.77 1015.25 1014.90 1014.54 1014.43 1014.41 1014.40 1014.45 1014.50 1014.59 1014.62 1014.42 1014.30 1014.64 1015.10 1015.60 1016.02 1016.51 1016.74 1016.84 1016.94 1016.88 1016.51 1016.08 1015.78 1015.10 1014.21 1013.45 1012.84 1012.22 1012.51 1013.02
1023.12 1022.56 1022.24 1021.08 1020.23 1019.60 1019.04 1018.28 1017.44 1016.67 1016.00 1015.43 1015.07 1014.57 1014.29 1014.04 1014.06 1014.16 1014.29 1014.36 1014.47 1014.64 1014.77 1014.73 1014.54 1014.70 1015.05 1015.52 1015.95 1016.36 1016.61 1016.83 1017.01 1016.98 1016.78 1016.38 1015.94 1015.56 1014.87 1014.16 1013.35 1012.96 1012.53 1011.98
1022.99 1022.11 1021.60 1020.88 1020.18 1019.64 1018.91 1018.14 1017.35 1016.67 1015.93 1015.18 1014.62 1014.30 1014.02 1013.94 1013.94 1014.00 1014.04 1014.28 1014.56 1014.82 1014.90 1014.94 1014.97 1015.06 1015.31 1015.66 1015.99 1016.40 1016.73 1016.98 1017.09 1017.09 1017.06 1016.87 1016.58 1016.20 1015.72 1015.11 1014.67 1013.87 1013.21 1012.88
1022.31 1021.69 1020.82 1020.32 1019.85 1019.25 1018.67 1017.90 1017.26 1016.65 1016.05 1015.30 1014.58 1014.06 1013.85 1013.85 1013.84 1014.02 1014.27 1014.45 1014.65 1015.08 1015.25 1015.25 1015.35 1015.59 1015.85 1016.01 1016.28 1016.65 1016.96 1017.12 1017.19 1017.24 1017.24 1017.23 1017.03 1016.82 1016.61 1016.30 1015.84 1015.45 1014.93 1014.06
1021.75 1021.28 1020.71 1019.84 1019.56 1019.04 1018.46 1017.78 1016.97 1016.40 1015.81 1015.13 1014.56 1014.13 1013.73 1013.78 1013.93 1014.27 1014.62 1014.82 1015.00 1015.27 1015.44 1015.59 1015.72 1016.09 1016.36 1016.47 1016.75 1017.08 1017.22 1017.27 1017.37 1017.45 1017.51 1017.51 1017.50 1017.42 1017.29 1017.16 1016.99 1016.68 1016.13 1015.42
1021.15 1020.49 1019.56 1019.57 1019.28 1018.83 1018.34 1017.74 1017.23 1016.52 1015.96 1015.37 1014.80 1014.43 1014.03 1014.14 1014.49 1014.88 1015.17 1015.35 1015.44 1015.40 1015.56 1015.75 1015.94 1016.39 1016.70 1016.78 1017.03 1017.26 1017.32 1017.05 1017.27 1017.51 1017.68 1017.80 1017.84 1017.86 1017.91 1017.86 1017.75 1017.54 1017.08 1016.54
1021.64 1020.44 1020.30 1020.01 1019.34 1018.77 1018.48 1017.98 1017.47 1016.87 1016.23 1015.69 1015.20 1014.66 1014.33 1014.50 1014.92 1015.22 1015.51 1015.76 1015.86 1015.85 1015.86 1015.98 1016.39 1016.72 1016.96 1017.03 1017.07 1017.17 1017.41 1017.33 1017.12 1017.60 1017.82 1018.05 1018.18 1018.26 1018.35 1018.33 1018.28 1018.10 1017.78 1017.00
1022.63 1021.92 1021.27 1020.58 1019.82 1019.22 1018.72 1018.19 1017.64 1017.16 1016.72 1016.20 1015.56 1015.04 1014.69 1014.84 1015.14 1015.52 1015.89 1016.15 1016.23 1016.23 1016.33 1016.48 1016.71 1016.92 1017.12 1017.19 1017.13 1017.32 1017.53 1017.62 1017.60 1017.87 1018.09 1018.38 1018.55 1018.62 1018.71 1018.77 1018.71 1018.59 1018.38 1017.95
1022.70 1022.07 1021.54 1020.92 1020.32 1019.72 1019.14 1018.56 1018.01 1017.55 1017.06 1016.47 1015.95 1015.49 1015.39 1015.48 1015.63 1015.93 1016.13 1016.31 1016.44 1016.54 1016.80 1016.74 1016.60 1017.08 1017.28 1017.29 1017.42 1017.54 1017.75 1018.00 1018.12 1018.29 1018.46 1018.55 1018.80 1018.98 1019.09 1019.16 1019.13 1019.06 1018.87 1018.65
1022.98 1022.48 1021.88 1021.23 1020.64 1020.15 1019.54 1018.99 1018.47 1017.88 1017.37 1016.76 1016.22 1015.76 1015.89 1016.14 1016.32 1016.35 1016.26 1016.48 1016.41 1016.53 1016.76 1016.73 1017.03 1017.26 1017.35 1017.30 1017.59 1017.85 1018.09 1018.44 1018.55 1018.73 1018.81 1018.93 1019.08 1019.27 1019.44 1019.46 1019.53 1019.52 1019.41 1019.29
1023.54 1022.92 1022.30 1021.60 1021.02 1020.53 1019.95 1019.40 1018.93 1018.28 1017.64 1017.01 1016.65 1016.46 1016.54 1016.70 1016.69 1016.70 1016.78 1016.83 1016.86 1016.71 1016.82 1016.97 1017.23 1017.36 1017.49 1017.58 1017.97 1018.18 1018.40 1018.76 1018.91 1019.06 1019.15 1019.33 1019.52 1019.70 1019.85 1019.92 1019.94 1019.93 1019.88 1019.78
1024.05 1023.49 1022.87 1022.22 1021.60 1020.92 1020.33 1019.89 1019.47 1018.91 1018.29 1017.71 1017.34 1017.24 1017.21 1017.20 1017.17 1016.98 1016.96 1017.10 1017.01 1016.98 1017.22 1017.34 1017.36 1017.29 1017.44 1017.90 1018.30 1018.54 1018.73 1018.95 1019.28 1019.48 1019.68 1019.86 1020.05 1020.26 1020.40 1020.46 1020.47 1020.36 1020.22 1020.12
1024.57 1024.00 1023.34 1022.73 1022.11 1021.44 1020.86 1020.36 1019.96 1019.52 1019.06 1018.63 1018.25 1018.02 1017.89 1017.75 1017.57 1017.45 1017.36 1017.30 1017.28 1017.27 1017.52 1017.48 1017.36 1017.20 1017.79 1018.38 1018.67 1018.95 1019.24 1019.54 1019.89 1020.15 1020.34 1020.44 1020.59 1020.79 1020.99 1020.98 1020.88 1020.71 1020.62 1020.45
1025.00 1024.34 1023.68 1023.11 1022.52 1021.90 1021.29 1020.77 1020.35 1020.11 1019.85 1019.50 1019.18 1018.91 1018.56 1018.26 1018.00 1017.77 1017.67 1017.41 1017.28 1017.62 1017.66 1017.67 1017.88 1018.16 1018.84 1019.09 1019.40 1019.68 1019.95 1020.19 1020.40 1020.59 1020.74 1020.77 1021.00 1021.06 1021.11 1021.12 1021.12 1020.98 1020.80 1020.58
1025.30 1024.65 1024.00 1023.47 1022.96 1022.50 1021.94 1021.25 1020.78 1020.50 1020.27 1020.16 1019.92 1019.60 1019.25 1018.92 1018.72 1018.78 1018.52 1018.19 1018.01 1018.42 1018.54 1018.65 1019.01 1019.48 1019.77 1019.94 1020.19 1020.40 1020.58 1020.71 1020.83 1020.98 1021.15 1021.28 1021.39 1021.47 1021.45 1021.36 1021.24 1021.03 1020.75 1020.52
1025.53 1024.89 1024.28 1023.93 1023.49 1023.00 1022.46 1021.79 1021.52 1021.16 1020.90 1020.74 1020.66 1020.45 1020.21 1019.99 1019.75 1019.70 1019.50 1019.49 1019.56 1019.66 1019.86 1020.02 1020.21 1020.36 1020.48 1020.67 1020.87 1021.01 1021.14 1021.24 1021.37 1021.43 1021.53 1021.61 1021.68 1021.72 1021.65 1021.50 1021.29 1021.01 1020.70 1020.36
1025.81 1025.13 1024.60 1024.28 1023.88 1023.36 1022.89 1022.29 1021.99 1021.75 1021.47 1021.29 1021.22 1021.20 1021.04 1020.87 1020.62 1020.61 1020.53 1020.67 1020.66 1020.67 1020.67 1020.73 1020.76 1020.88 1021.06 1021.24 1021.40 1021.53 1021.65 1021.72 1021.68 1021.73 1021.84 1021.91 1021.91 1021.83 1021.65 1021.41 1021.14 1020.75 1020.35 1019.97
Wind_Speed
14 15 15 15 14 11 13 16 9 3 10 11 4 3 6 5 4 5 4 6 6 5 5 5 5 4 4 4 4 4 4 4 8 8 9 11 13 14 16 14 14 15 15 16
8 12 16 20 17 20 17 15 15 13 23 16 11 2 3 4 3 6 6 5 5 6 6 7 7 6 5 5 5 3 4 6 7 7 9 11 13 15 16 14 15 15 15 15
4 7 12 7 7 6 9 8 9 8 12 5 2 5 3 4 4 7 6 6 6 6 6 6 7 6 6 5 3 5 4 6 7 7 10 11 12 14 15 14 15 16 15 16
3 4 4 3 15 9 14 9 7 6 3 2 2 3 6 6 6 7 6 5 5 4 4 6 7 7 5 4 5 6 5 4 6 7 8 10 11 13 13 12 12 13 14 16
2 3 10 10 12 10 9 5 17 14 6 7 7 7 5 5 3 4 4 4 3 3 4 5 7 8 7 6 5 4 5 4 6 6 8 8 11 13 14 12 11 13 13 15
2 4 3 3 15 13 7 3 9 9 8 4 5 3 1 6 8 6 5 6 4 4 3 3 5 7 6 5 4 2 4 5 4 5 5 7 10 13 12 12 11 11 14 14
6 4 3 12 19 16 6 7 22 12 7 7 4 6 7 7 7 5 3 5 8 5 5 6 4 6 6 5 4 4 3 6 5 5 5 7 8 8 9 11 11 13 13 13
4 3 2 14 6 8 8 19 20 19 13 12 12 12 7 8 7 7 5 4 7 7 5 6 6 6 6 5 6 4 3 4 6 6 5 6 8 8 10 11 12 13 14 14
1 7 17 10 14 4 14 18 20 16 7 5 12 13 9 8 8 6 5 5 5 6 5 5 6 6 5 4 6 4 2 2 6 6 5 6 7 9 9 10 11 11 12 13
6 6 7 17 8 10 15 18 16 18 15 8 12 12 9 11 10 6 5 5 4 5 5 5 6 7 6 5 6 4 2 1 2 5 6 5 6 6 7 8 9 11 12 13
7 7 16 4 11 13 17 17 15 11 12 13 8 12 10 12 7 6 4 4 3 3 4 4 4 6 5 6 6 4 3 2 3 2 5 5 3 3 5 9 13 10 8 8
12 12 12 15 18 16 16 16 15 14 8 9 11 12 10 6 4 2 4 2 3 3 2 2 2 5 6 6 5 4 3 3 1 2 3 4 4 4 10 14 20 23 25 19
10 12 13 15 12 12 16 15 15 14 13 12 7 6 5 3 2 6 1 2 3 3 1 2 3 4 5 5 5 4 4 3 1 3 2 3 3 4 5 8 17 20 24 25
11 12 12 4 13 15 14 15 15 12 10 8 7 5 4 4 3 2 3 3 2 3 2 3 4 4 4 4 4 5 4 4 3 2 2 3 3 3 3 4 6 7 16 20
9 8 12 13 10 11 10 13 15 11 11 12 11 10 7 5 3 2 3 1 1 3 3 3 4 5 3 3 4 3 2 3 2 2 1 3 3 3 3 4 5 5 6 13
18 18 13 5 8 8 10 12 13 13 12 11 11 11 5 3 3 3 3 2 0 2 3 3 4 4 4 3 5 3 2 5 5 2 1 2 2 3 3 3 3 4 5 5
19 19 18 15 13 9 12 12 11 12 12 12 13 12 6 2 3 3 4 3 3 3 3 3 5 5 4 3 1 2 2 0 6 3 2 2 2 3 3 3 3 4 4 7
13 15 15 15 15 14 13 13 12 11 11 14 11 10 4 2 3 4 3 2 3 4 5 4 5 5 4 3 3 2 2 2 2 3 2 3 2 3 3 2 3 3 3 6
14 14 15 15 14 13 13 13 11 11 11 10 10 6 4 5 5 4 4 3 3 4 1 1 8 7 4 4 5 2 3 3 3 3 2 3 4 3 3 3 3 3 3 4
14 14 15 15 13 13 12 12 12 11 10 10 8 5 4 4 3 2 3 5 3 4 4 5 5 4 2 4 8 2 3 3 3 2 1 3 3 3 2 4 4 3 3 3
14 14 14 14 13 13 11 10 10 11 12 9 7 6 5 4 3 3 4 4 3 5 5 9 4 2 2 5 5 3 3 3 3 2 3 3 4 3 3 3 3 3 3 3
12 12 13 13 13 12 10 8 10 9 10 9 6 4 4 4 4 6 5 3 0 10 4 3 2 7 4 10 3 3 3 4 3 3 3 3 3 3 3 3 3 3 3 3
10 11 11 11 12 11 9 7 8 9 9 9 8 6 5 4 2 1 2 4 3 5 2 1 5 11 14 4 4 4 5 5 4 4 3 3 3 3 2 2 2 3 3 3
9 10 10 8 7 9 11 10 7 6 6 7 7 8 6 3 3 3 2 3 8 8 3 8 10 14 12 4 4 4 4 4 3 3 3 4 2 2 2 2 2 3 3 5
7 7 7 8 7 9 11 11 5 5 5 5 7 6 7 4 3 4 5 5 14 10 7 11 11 11 4 4 4 4 3 2 2 3 2 2 2 2 2 2 2 3 3 3
6 7 6 7 7 7 8 6 6 6 5 5 4 5 5 5 5 6 5 7 6 8 4 3 3 4 3 3 4 4 3 3 3 2 3 2 2 2 2 3 3 4 4 5
6 13 6 6 6 7 8 7 5 5 5 3 2 4 4 5 5 5 6 4 3 3 3 3 3 4 3 3 3 3 2 2 2 2 2 1 2 2 3 3 4 4 5 6
Wind_Direction
261 280 288 283 276 188 205 217 229 268 285 278 298 327 285 250 309 287 270 241 225 218 205 191 183 205 214 228 247 258 279 287 284 284 294 301 303 303 304 300 305 300 301 300
299 286 266 266 266 256 222 224 256 272 280 278 282 200 271 281 277 277 272 258 246 212 193 182 191 200 204 217 236 251 277 284 286 294 302 305 307 309 311 310 318 315 310 316
258 320 330 317 268 293 264 192 176 195 241 257 340 311 316 323 289 276 278 275 259 215 199 182 182 185 195 203 220 259 257 276 290 294 300 307 307 315 318 315 318 320 317 325
296 314 237 105 19 10 346 17 328 255 164 292 315 295 280 243 271 304 302 282 268 223 207 184 163 167 165 174 218 251 266 276 293 291 295 308 313 317 314 312 320 322 320 324
276 284 298 16 17 350 339 338 7 352 62 47 3 323 5 69 23 307 295 287 262 237 218 192 168 167 166 196 216 241 283 290 290 285 299 310 317 318 316 323 325 327 327 330
294 260 302 22 346 318 296 217 16 15 2 347 315 289 212 348 318 279 313 314 267 227 258 207 178 150 163 211 195 189 307 293 274 283 291 307 311 314 314 325 334 331 340 338
265 274 276 1 353 343 3 337 327 316 285 296 277 247 267 302 294 310 287 320 306 247 223 223 199 158 180 211 192 148 288 302 311 304 291 294 305 310 319 336 345 351 345 345
324 282 309 359 350 3 299 300 302 293 280 290 298 298 283 290 289 295 278 286 292 276 226 223 195 165 195 212 153 141 252 307 315 326 321 324 321 323 338 346 359 2 352 359
111 284 301 343 321 280 321 301 308 281 275 292 290 291 276 299 295 282 269 265 270 278 227 212 184 167 198 199 144 157 232 27 323 328 339 337 342 337 350 353 1 12 2 5
353 312 323 315 304 325 322 309 298 285 274 278 279 279 280 296 289 275 247 247 253 292 263 240 178 172 189 156 136 155 125 66 329 333 349 350 4 353 347 4 9 13 19 10
253 299 312 300 320 320 320 322 317 270 266 270 265 271 269 279 263 253 245 248 217 234 275 258 203 167 169 149 140 164 138 122 22 25 334 341 1 352 352 1 27 16 37 31
312 310 303 311 319 318 321 321 324 333 293 264 254 269 275 258 257 235 262 252 238 216 251 269 87 158 152 142 146 160 164 109 74 20 348 358 352 352 13 30 20 28 20 30
294 297 286 289 300 314 311 317 325 332 324 323 315 295 296 270 245 281 243 240 245 234 185 128 115 99 115 126 145 149 123 123 86 69 33 15 12 6 -0 4 28 19 23 18
288 295 294 265 307 311 312 311 315 309 313 311 300 288 254 262 280 299 279 283 174 154 154 130 121 108 91 101 99 100 88 112 97 97 60 57 30 24 19 12 14 10 18 17
282 277 281 283 293 303 310 320 322 321 323 327 327 320 306 296 312 34 48 33 138 157 147 142 134 125 101 100 121 121 150 109 83 79 63 73 54 50 36 32 29 21 8 20
316 302 283 262 287 302 322 325 323 326 331 326 327 330 324 47 69 79 65 45 268 188 146 152 136 122 123 116 129 123 87 130 129 121 92 68 38 50 38 41 42 31 11 10
330 334 338 328 319 330 328 328 322 320 326 329 325 322 325 79 127 101 73 49 55 60 98 111 113 126 127 119 138 108 112 87 139 75 77 86 76 71 49 46 34 29 2 6
333 333 340 337 335 335 330 327 323 323 328 318 323 317 338 21 67 93 95 94 84 69 57 84 107 120 111 91 80 83 85 71 63 101 79 75 80 76 63 59 45 36 346 9
342 338 340 337 339 332 330 327 326 329 324 319 324 330 13 43 66 94 131 135 121 104 77 227 129 111 115 135 98 80 90 76 64 54 58 111 77 66 61 54 40 25 9 20
341 341 336 335 335 340 331 335 331 326 323 316 321 319 62 46 54 96 85 63 47 119 156 115 104 112 145 94 101 79 79 91 97 93 65 63 86 82 60 53 60 33 24 21
339 339 337 336 342 337 334 334 337 335 331 339 351 30 60 61 61 93 82 82 94 118 136 115 127 131 168 107 91 86 84 78 84 73 66 69 64 60 54 42 32 35 24 19
335 339 334 347 341 334 340 350 343 343 348 352 14 38 57 57 44 46 71 97 180 102 103 98 136 152 125 102 89 85 75 81 75 64 57 59 62 61 51 42 19 9 11 357
335 333 328 346 338 332 334 348 349 355 358 5 14 24 34 30 23 64 73 55 68 106 83 112 196 140 112 92 81 74 71 71 69 66 64 58 58 52 47 13 18 7 349 330
334 333 330 336 326 346 349 353 350 1 2 7 14 14 9 3 34 21 43 134 133 113 114 67 85 87 87 67 70 72 69 71 70 63 43 76 55 41 28 13 345 324 312 323
323 316 333 343 356 355 343 333 335 352 4 11 7 2 5 6 42 23 30 20 77 65 50 73 76 85 59 67 71 73 69 78 104 79 64 68 55 29 341 331 302 275 272 287
331 332 345 345 351 342 337 340 360 353 11 5 17 7 8 15 24 32 30 64 54 74 63 78 80 59 64 79 70 70 66 50 51 16 80 34 22 336 311 299 290 289 287 283
346 350 352 349 344 339 338 357 351 346 346 354 16 15 11 15 19 34 46 37 44 46 57 60 49 99 95 77 72 64 58 42 43 91 43 2 330 293 291 285 283 282 284 281